�N����,�����b,�ŏ������i�x�j,���ϕ����i�x�j,�ő啗���i�x�j,�ŏ�����(m/s),���ϕ���(m/s),�ő啗��(m/s),�C��(���j,���x�i���j,�C��(hPa),�~�J��(mm),�~�J����(�b�j,�~�J���x(mm/h),�~�Ђ傤��(hit/���u),�~�Ђ傤����(�b�j,�~�Ђ傤���x(hit/���uh),�q�[�^���x(���j,�q�[�^�[�d���iV),�d���d���iV),�Q�Ɠd���iV)
2010/07/02,17:50:01,55,55,55,0.0,0.0,0.0,28.8,74.5,1000.0,0.00,0,0.0,0.0,0,0.0,30.3,0.0,12.2,3.505
2010/07/02,18:00:01,163,226,283,0.3,2.2,6.1,28.7,74.4,1000.1,0.00,0,0.0,0.0,0,0.0,29.5,0.0,12.2,3.504
2010/07/02,18:10:01,146,227,303,0.4,2.6,5.5,28.5,75.1,1000.1,0.00,0,0.0,0.0,0,0.0,29.5,0.0,12.2,3.505
2010/07/02,18:20:01,145,228,292,0.7,2.6,5.4,28.4,74.8,1000.1,0.00,0,0.0,0.0,0,0.0,29.1,0.0,12.2,3.505
2010/07/02,18:30:01,145,226,331,0.3,2.1,5.0,28.4,76.0,1000.2,0.00,0,0.0,0.0,0,0.0,28.9,0.0,12.2,3.504
2010/07/02,18:40:01,137,224,283,0.5,2.1,5.1,28.3,77.6,1000.3,0.00,0,0.0,0.0,0,0.0,29.6,0.0,12.2,3.505
2010/07/02,18:50:01,123,222,301,0.3,2.5,5.5,28.1,80.1,1000.4,0.00,0,0.0,0.0,0,0.0,28.9,0.0,12.2,3.505
2010/07/02,19:00:01,99,216,5,0.2,2.1,5.1,28.1,79.0,1000.5,0.00,0,0.0,0.0,0,0.0,28.1,0.0,12.3,3.506
2010/07/02,19:10:01,134,200,278,0.4,2.2,5.1,28.0,77.8,1000.6,0.00,0,0.0,0.0,0,0.0,27.7,0.0,12.2,3.505
2010/07/02,19:20:01,125,197,282,0.1,2.0,4.7,27.6,78.7,1000.6,0.00,0,0.0,0.0,0,0.0,27.7,0.0,12.2,3.505
2010/07/02,19:30:01,133,204,280,0.3,2.5,4.7,27.3,80.1,1000.6,0.00,0,0.0,0.0,0,0.0,27.1,0.0,12.2,3.506
2010/07/02,19:40:01,146,200,288,0.6,2.5,5.8,27.2,80.7,1000.6,0.00,0,0.0,0.0,0,0.0,26.5,0.0,12.2,3.505
2010/07/02,19:50:01,134,205,306,0.2,2.5,5.2,27.2,80.2,1000.7,0.00,0,0.0,0.0,0,0.0,26.2,0.0,12.2,3.508
2010/07/02,20:00:01,132,210,261,0.3,2.9,6.3,27.2,78.3,1000.6,0.00,0,0.0,0.0,0,0.0,26.2,0.0,12.2,3.505
2010/07/02,20:10:01,159,210,277,0.5,2.9,5.9,27.1,79.0,1000.5,0.00,0,0.0,0.0,0,0.0,26.2,0.0,12.2,3.505
2010/07/02,20:20:01,147,209,282,0.4,2.8,6.4,27.0,79.3,1000.3,0.00,0,0.0,0.0,0,0.0,25.9,0.0,12.2,3.505
2010/07/02,20:30:01,147,203,319,0.5,2.8,5.3,26.9,79.7,1000.1,0.00,0,0.0,0.0,0,0.0,26.0,0.0,12.2,3.506
2010/07/02,20:40:01,115,204,283,0.3,2.3,5.2,26.9,80.3,1000.3,0.00,0,0.0,0.0,0,0.0,26.0,0.0,12.2,3.505
2010/07/02,20:50:01,132,211,311,0.3,2.5,5.6,26.9,80.6,1000.4,0.00,0,0.0,0.0,0,0.0,25.7,0.0,12.2,3.506
2010/07/02,21:00:01,95,206,275,0.2,2.3,4.8,26.8,80.6,1000.5,0.00,0,0.0,0.0,0,0.0,25.9,0.0,12.2,3.506
2010/07/02,21:10:01,119,203,276,0.5,2.1,4.1,26.7,80.4,1000.5,0.00,0,0.0,0.0,0,0.0,25.9,0.0,12.2,3.505
2010/07/02,21:20:01,148,202,293,0.4,2.4,5.0,26.6,80.6,1000.5,0.00,0,0.0,0.0,0,0.0,25.9,0.0,12.2,3.505
2010/07/02,21:30:01,155,206,261,0.5,2.2,4.8,26.6,80.9,1000.5,0.00,0,0.0,0.0,0,0.0,25.5,0.0,12.2,3.506
2010/07/02,21:40:01,138,201,261,0.3,2.2,4.1,26.5,82.1,1000.6,0.00,0,0.0,0.0,0,0.0,25.5,0.0,12.2,3.506
2010/07/02,21:50:01,118,202,261,0.4,1.8,3.4,26.5,82.5,1000.6,0.00,0,0.0,0.0,0,0.0,25.5,0.0,12.2,3.505
2010/07/02,22:00:01,155,206,275,0.3,1.8,3.8,26.5,82.7,1000.6,0.00,0,0.0,0.0,0,0.0,25.5,0.0,12.2,3.506
2010/07/02,22:10:01,157,216,261,0.6,2.5,5.0,26.7,81.9,1000.5,0.00,0,0.0,0.0,0,0.0,25.3,0.0,12.2,3.506
2010/07/02,22:20:01,157,213,261,0.4,2.8,5.0,26.6,82.0,1000.4,0.00,0,0.0,0.0,0,0.0,25.9,0.0,12.2,3.505
2010/07/02,22:30:01,155,207,261,0.6,2.7,6.0,26.5,81.2,1000.4,0.00,0,0.0,0.0,0,0.0,25.3,0.0,12.2,3.506
2010/07/02,22:40:01,138,205,335,0.7,2.9,5.6,26.5,81.0,1000.3,0.00,0,0.0,0.0,0,0.0,25.5,0.0,12.2,3.505
2010/07/02,22:50:01,130,208,259,0.3,3.0,5.8,26.6,81.3,1000.2,0.00,0,0.0,0.0,0,0.0,25.5,0.0,12.2,3.505
2010/07/02,23:00:01,161,209,273,0.6,3.3,6.4,26.6,81.2,1000.1,0.00,0,0.0,0.0,0,0.0,25.5,0.0,12.2,3.506
2010/07/02,23:10:01,134,211,340,0.7,3.1,6.6,26.6,81.8,1000.2,0.00,0,0.0,0.0,0,0.0,25.7,0.0,12.2,3.506
2010/07/02,23:20:01,64,212,307,0.8,3.3,6.2,26.6,82.0,1000.2,0.00,0,0.0,0.0,0,0.0,25.7,0.0,12.2,3.505
2010/07/02,23:30:01,146,210,271,0.6,3.0,6.1,26.5,82.5,1000.2,0.00,0,0.0,0.0,0,0.0,25.5,0.0,12.2,3.506
2010/07/02,23:40:01,121,209,273,0.3,2.9,6.9,26.5,83.0,1000.3,0.00,0,0.0,0.0,0,0.0,25.5,0.0,12.2,3.506
2010/07/02,23:50:01,96,211,298,0.3,2.9,5.2,26.4,82.7,1000.2,0.00,0,0.0,0.0,0,0.0,25.5,0.0,12.2,3.506
2010/07/03,00:00:01,141,211,295,0.7,2.7,5.7,26.4,81.8,1000.0,0.00,0,0.0,0.0,0,0.0,25.3,0.0,12.2,3.506
2010/07/03,00:10:01,153,214,275,0.5,2.5,7.1,26.5,82.0,1000.0,0.00,0,0.0,0.0,0,0.0,25.3,0.0,12.2,3.506
2010/07/03,00:20:01,153,214,263,0.4,2.7,5.5,26.6,81.0,999.9,0.00,0,0.0,0.0,0,0.0,25.5,0.0,12.2,3.506
2010/07/03,00:30:01,159,217,277,0.5,2.7,5.8,26.6,81.1,999.9,0.00,0,0.0,0.0,0,0.0,25.5,0.0,12.2,3.506
2010/07/03,00:40:01,120,217,306,0.4,2.7,5.9,26.6,82.0,1000.0,0.00,0,0.0,0.0,0,0.0,25.5,0.0,12.2,3.505
2010/07/03,00:50:01,161,216,315,0.6,3.1,7.3,26.6,81.6,1000.1,0.00,0,0.0,0.0,0,0.0,25.5,0.0,12.2,3.506
2010/07/03,01:00:01,154,214,277,0.5,3.4,7.1,26.7,81.7,1000.1,0.00,0,0.0,0.0,0,0.0,25.5,0.0,12.2,3.506
2010/07/03,01:10:01,141,215,270,0.5,2.9,7.3,26.6,82.3,1000.0,0.00,0,0.0,0.0,0,0.0,25.9,0.0,12.2,3.508
2010/07/03,01:20:01,166,213,267,0.9,2.9,6.8,26.6,81.6,999.9,0.00,0,0.0,0.0,0,0.0,25.7,0.0,12.2,3.504
2010/07/03,01:30:01,165,216,288,0.4,2.7,6.7,26.6,81.9,999.8,0.00,0,0.0,0.0,0,0.0,25.5,0.0,12.2,3.506
2010/07/03,01:40:01,144,221,278,0.6,3.0,6.5,26.7,83.3,999.5,0.00,0,0.0,0.0,0,0.0,25.3,0.0,12.2,3.506
2010/07/03,01:50:01,158,214,288,0.7,3.1,6.8,26.6,83.6,999.6,0.00,0,0.0,0.0,0,0.0,25.5,0.0,12.2,3.508
2010/07/03,02:00:01,114,213,285,0.4,3.1,6.5,26.6,83.9,999.6,0.00,0,0.0,0.0,0,0.0,25.3,0.0,12.1,3.505
2010/07/03,02:10:01,139,213,307,0.3,2.9,5.7,26.6,83.7,999.7,0.00,0,0.0,0.0,0,0.0,25.5,0.0,12.2,3.506
2010/07/03,02:20:01,144,212,292,0.6,3.0,6.2,26.6,83.3,999.7,0.00,0,0.0,0.0,0,0.0,25.5,0.0,12.2,3.505
2010/07/03,02:30:01,141,207,267,0.4,2.8,6.4,26.5,83.5,999.7,0.00,0,0.0,0.0,0,0.0,25.3,0.0,12.1,3.508
2010/07/03,02:40:01,146,209,270,1.0,3.2,6.0,26.5,83.3,999.8,0.00,0,0.0,0.0,0,0.0,25.5,0.0,12.2,3.506
2010/07/03,02:50:01,125,206,291,0.5,3.2,7.2,26.5,83.3,999.9,0.00,0,0.0,0.0,0,0.0,25.5,0.0,12.2,3.505
2010/07/03,03:00:01,99,207,270,0.3,3.1,6.4,26.6,82.9,1000.0,0.00,0,0.0,0.0,0,0.0,25.5,0.0,12.2,3.506
2010/07/03,03:10:01,151,214,267,0.7,2.8,7.2,26.7,82.2,1000.1,0.00,0,0.0,0.0,0,0.0,25.7,0.0,12.2,3.508
2010/07/03,03:20:01,149,218,269,0.5,2.9,6.3,26.8,82.2,1000.2,0.00,0,0.0,0.0,0,0.0,25.9,0.0,12.2,3.505
2010/07/03,03:30:01,159,222,287,0.6,2.9,6.5,26.8,81.8,1000.1,0.00,0,0.0,0.0,0,0.0,25.9,0.0,12.2,3.505
2010/07/03,03:40:01,163,223,323,0.6,2.9,6.7,26.9,81.1,1000.2,0.00,0,0.0,0.0,0,0.0,26.0,0.0,12.2,3.506
2010/07/03,03:50:01,148,220,291,0.4,2.7,5.8,26.9,81.3,1000.1,0.00,0,0.0,0.0,0,0.0,26.0,0.0,12.2,3.509
2010/07/03,04:00:01,131,213,313,0.6,2.7,5.3,26.8,81.3,1000.0,0.00,0,0.0,0.0,0,0.0,26.0,0.0,12.2,3.505
2010/07/03,04:10:01,138,217,294,0.7,2.5,4.9,26.8,81.2,1000.1,0.00,0,0.0,0.0,0,0.0,26.0,0.0,12.2,3.508
2010/07/03,04:20:01,155,215,268,0.4,2.7,5.7,26.8,80.6,1000.1,0.00,0,0.0,0.0,0,0.0,26.0,0.0,12.2,3.506
2010/07/03,04:30:01,136,215,299,0.4,2.5,6.2,26.9,80.3,1000.1,0.00,0,0.0,0.0,0,0.0,25.9,0.0,12.2,3.505
2010/07/03,04:40:01,137,215,280,0.4,2.6,5.6,27.0,78.7,1000.1,0.00,0,0.0,0.0,0,0.0,26.0,0.0,12.2,3.505
2010/07/03,04:50:01,107,209,306,0.1,2.6,5.4,27.0,77.6,1000.0,0.00,0,0.0,0.0,0,0.0,26.0,0.0,12.2,3.506
2010/07/03,05:00:01,127,209,271,0.3,2.6,5.6,27.1,78.4,1000.0,0.00,0,0.0,0.0,0,0.0,26.2,0.0,12.2,3.506
2010/07/03,05:10:01,122,220,296,0.3,2.7,6.2,27.3,78.2,1000.0,0.00,0,0.0,0.0,0,0.0,26.2,0.0,12.2,3.506
2010/07/03,05:20:01,132,220,342,0.5,2.8,6.3,27.3,78.3,1000.0,0.00,0,0.0,0.0,0,0.0,26.4,0.0,12.2,3.508
2010/07/03,05:30:01,137,219,268,0.5,2.9,6.5,27.2,78.9,1000.0,0.00,0,0.0,0.0,0,0.0,26.4,0.0,12.2,3.505
2010/07/03,05:40:01,155,221,306,0.7,2.8,5.8,27.2,78.8,1000.1,0.00,0,0.0,0.0,0,0.0,26.5,0.0,12.2,3.506
2010/07/03,05:50:01,115,222,330,0.4,3.0,6.4,27.2,79.5,1000.2,0.00,0,0.0,0.0,0,0.0,26.4,0.0,12.2,3.505
2010/07/03,06:00:01,168,222,279,0.6,2.9,7.1,27.2,79.7,1000.3,0.00,0,0.0,0.0,0,0.0,26.2,0.0,12.2,3.508
2010/07/03,06:10:01,143,217,326,0.5,2.7,7.4,27.2,80.5,1000.3,0.00,0,0.0,0.0,0,0.0,26.2,0.0,12.2,3.506
2010/07/03,06:20:01,134,215,295,0.5,2.8,6.2,27.2,80.8,1000.4,0.00,0,0.0,0.0,0,0.0,26.2,0.0,12.2,3.504
2010/07/03,06:30:01,171,215,273,0.8,3.1,6.4,27.2,80.6,1000.2,0.00,0,0.0,0.0,0,0.0,26.2,0.0,12.2,3.508
2010/07/03,06:40:01,114,209,274,0.7,3.2,6.5,27.2,80.8,1000.2,0.00,0,0.0,0.0,0,0.0,26.4,0.0,12.2,3.505
2010/07/03,06:50:01,121,213,314,0.5,3.0,6.1,27.2,80.7,1000.3,0.00,0,0.0,0.0,0,0.0,26.4,0.0,12.2,3.506
2010/07/03,07:00:01,137,217,320,0.5,3.1,6.3,27.3,80.2,1000.5,0.00,0,0.0,0.0,0,0.0,26.4,0.0,12.2,3.506
2010/07/03,07:10:01,138,212,285,0.6,3.0,6.9,27.3,79.5,1000.5,0.00,0,0.0,0.0,0,0.0,26.5,0.0,12.2,3.506
2010/07/03,07:20:01,135,215,275,0.7,3.1,6.4,27.4,79.4,1000.6,0.00,0,0.0,0.0,0,0.0,26.9,0.0,12.2,3.506
2010/07/03,07:30:01,144,214,257,0.3,3.4,7.0,27.5,79.7,1000.5,0.00,0,0.0,0.0,0,0.0,26.9,0.0,12.2,3.506
2010/07/03,07:40:01,110,217,294,0.7,3.2,7.4,27.5,80.3,1000.6,0.00,0,0.0,0.0,0,0.0,27.1,0.0,12.2,3.505
2010/07/03,07:50:01,164,221,276,0.8,3.1,6.8,27.5,80.5,1000.5,0.00,0,0.0,0.0,0,0.0,27.1,0.0,12.2,3.505
2010/07/03,08:00:01,161,221,270,0.9,3.4,7.0,27.6,80.4,1000.6,0.00,0,0.0,0.0,0,0.0,27.2,0.0,12.2,3.506
2010/07/03,08:10:01,155,219,294,0.7,3.5,8.1,27.6,80.2,1000.6,0.00,0,0.0,0.0,0,0.0,27.1,0.0,12.2,3.506
2010/07/03,08:20:01,169,220,270,0.7,3.3,7.7,27.7,80.4,1000.5,0.00,0,0.0,0.0,0,0.0,27.4,0.0,12.2,3.508
2010/07/03,08:30:01,155,219,294,0.7,3.2,6.6,27.7,80.3,1000.5,0.00,0,0.0,0.0,0,0.0,27.6,0.0,12.2,3.506
2010/07/03,08:40:01,146,218,293,0.4,3.2,6.9,27.8,79.9,1000.6,0.00,0,0.0,0.0,0,0.0,27.7,0.0,12.2,3.505
2010/07/03,08:50:01,166,221,307,0.6,3.5,7.7,28.0,79.9,1000.5,0.00,0,0.0,0.0,0,0.0,27.9,0.0,12.2,3.505
2010/07/03,09:00:01,170,224,275,0.6,3.5,7.0,28.0,79.7,1000.6,0.00,0,0.0,0.0,0,0.0,28.3,0.0,12.2,3.508
2010/07/03,09:10:01,142,226,272,0.9,3.4,6.8,28.3,78.8,1000.6,0.00,0,0.0,0.0,0,0.0,28.4,0.0,12.2,3.505
2010/07/03,09:20:01,153,228,304,0.9,3.4,6.8,28.4,77.9,1000.6,0.00,0,0.0,0.0,0,0.0,29.1,0.0,12.2,3.506
2010/07/03,09:30:01,148,227,283,0.9,3.5,7.8,28.7,77.7,1000.7,0.00,0,0.0,0.0,0,0.0,29.6,0.0,12.2,3.506
2010/07/03,09:40:01,141,221,300,0.6,2.7,5.5,29.1,76.6,1000.7,0.00,0,0.0,0.0,0,0.0,30.3,0.0,12.2,3.506
2010/07/03,09:50:01,122,224,286,0.5,3.1,6.9,28.8,78.0,1000.6,0.00,0,0.0,0.0,0,0.0,31.5,0.0,12.2,3.504
2010/07/03,10:00:01,154,222,281,0.4,3.0,6.3,29.1,76.1,1000.6,0.00,0,0.0,0.0,0,0.0,30.7,0.0,12.2,3.504
2010/07/03,10:10:01,143,220,319,0.6,3.2,7.9,28.8,77.1,1000.7,0.00,0,0.0,0.0,0,0.0,31.0,0.0,12.2,3.505
2010/07/03,10:20:01,156,220,342,0.6,3.3,8.2,28.8,77.6,1000.7,0.00,0,0.0,0.0,0,0.0,30.1,0.0,12.2,3.505
2010/07/03,10:30:01,130,225,298,0.8,3.5,8.4,28.9,77.5,1000.7,0.00,0,0.0,0.0,0,0.0,29.8,0.0,12.2,3.505
2010/07/03,10:40:01,157,226,288,0.7,3.4,8.3,29.0,77.3,1000.7,0.00,0,0.0,0.0,0,0.0,29.8,0.0,12.2,3.506
2010/07/03,10:50:01,111,227,321,0.7,3.6,7.3,29.0,77.7,1000.8,0.00,0,0.0,0.0,0,0.0,30.0,0.0,12.2,3.505
2010/07/03,11:00:01,156,229,327,0.8,3.2,7.0,28.9,77.8,1000.8,0.00,0,0.0,0.0,0,0.0,30.1,0.0,12.2,3.505
2010/07/03,11:10:01,171,230,289,0.4,3.5,7.2,28.8,79.0,1000.9,0.00,0,0.0,0.0,0,0.0,29.6,0.0,12.2,3.505
2010/07/03,11:20:01,180,232,291,1.1,3.6,8.5,29.0,78.5,1000.8,0.00,0,0.0,0.0,0,0.0,29.1,0.0,12.2,3.506
2010/07/03,11:30:01,172,233,302,0.7,3.6,6.8,29.6,77.4,1000.9,0.00,0,0.0,0.0,0,0.0,29.3,0.0,12.2,3.505
2010/07/03,11:40:01,150,232,318,0.5,3.6,7.7,30.0,75.5,1000.9,0.00,0,0.0,0.0,0,0.0,30.8,0.0,12.2,3.505
2010/07/03,11:50:01,146,231,328,0.7,3.8,7.4,30.0,74.0,1000.8,0.00,0,0.0,0.0,0,0.0,32.2,0.0,12.2,3.505
2010/07/03,12:00:01,166,231,280,0.7,3.9,8.0,30.0,72.9,1000.7,0.00,0,0.0,0.0,0,0.0,31.7,0.0,12.2,3.505
2010/07/03,12:10:01,130,232,283,1.2,4.1,7.6,30.1,73.2,1000.6,0.00,0,0.0,0.0,0,0.0,32.4,0.0,12.2,3.504
2010/07/03,12:20:01,182,233,280,0.9,3.9,7.7,30.1,72.9,1000.6,0.00,0,0.0,0.0,0,0.0,32.7,0.0,12.2,3.505
2010/07/03,12:30:01,177,234,337,1.4,3.9,7.3,30.2,71.2,1000.6,0.00,0,0.0,0.0,0,0.0,32.9,0.0,12.2,3.505
2010/07/03,12:40:01,119,231,299,1.3,4.3,9.8,30.5,71.4,1000.5,0.00,0,0.0,0.0,0,0.0,32.9,0.0,12.2,3.505
2010/07/03,12:50:01,174,233,297,0.8,4.1,7.5,30.3,71.6,1000.5,0.00,0,0.0,0.0,0,0.0,33.2,0.0,12.2,3.505
2010/07/03,13:00:01,171,231,273,1.3,3.9,8.0,29.8,74.0,1000.6,0.00,0,0.0,0.0,0,0.0,33.1,0.0,12.2,3.504
2010/07/03,13:10:01,141,232,295,1.0,3.7,7.3,29.7,75.0,1000.4,0.00,0,0.0,0.0,0,0.0,32.0,0.0,12.2,3.506
2010/07/03,13:20:01,143,236,316,0.6,4.1,8.1,30.4,71.9,1000.3,0.00,0,0.0,0.0,0,0.0,31.0,0.0,12.2,3.505
2010/07/03,13:30:01,184,234,286,0.8,3.7,7.4,30.7,71.0,1000.3,0.00,0,0.0,0.0,0,0.0,32.4,0.0,12.2,3.505
2010/07/03,13:40:01,181,235,288,0.7,3.5,6.7,30.4,72.5,1000.1,0.00,0,0.0,0.0,0,0.0,33.2,0.0,12.2,3.505
2010/07/03,13:50:01,175,235,289,0.5,3.4,5.9,30.4,74.8,1000.1,0.00,0,0.0,0.0,0,0.0,33.1,0.0,12.2,3.505
2010/07/03,14:00:01,167,230,272,0.9,3.2,6.5,30.8,70.9,999.9,0.00,0,0.0,0.0,0,0.0,33.6,0.0,12.2,3.505
2010/07/03,14:10:01,156,232,303,0.5,3.3,6.3,30.4,73.8,999.8,0.00,0,0.0,0.0,0,0.0,33.9,0.0,12.2,3.505
2010/07/03,14:20:01,165,232,287,0.9,3.5,6.8,30.3,73.4,999.7,0.00,0,0.0,0.0,0,0.0,33.1,0.0,12.2,3.505
2010/07/03,14:30:01,151,234,297,0.7,3.9,7.6,30.6,71.7,999.5,0.00,0,0.0,0.0,0,0.0,32.9,0.0,12.2,3.505
2010/07/03,14:40:01,147,232,299,0.5,4.0,8.8,30.5,72.4,999.5,0.00,0,0.0,0.0,0,0.0,33.2,0.0,12.2,3.506
2010/07/03,14:50:01,174,230,303,1.2,4.2,9.5,30.4,72.3,999.4,0.00,0,0.0,0.0,0,0.0,33.2,0.0,12.2,3.505
2010/07/03,15:00:01,142,230,293,0.9,4.5,8.7,30.3,74.0,999.2,0.00,0,0.0,0.0,0,0.0,32.9,0.0,12.2,3.505
2010/07/03,15:10:01,165,231,276,1.3,4.5,9.0,30.3,73.9,999.1,0.00,0,0.0,0.0,0,0.0,32.2,0.0,12.2,3.505
2010/07/03,15:20:01,173,230,295,1.2,4.5,9.6,30.4,74.1,999.1,0.00,0,0.0,0.0,0,0.0,32.2,0.0,12.2,3.506
2010/07/03,15:30:01,150,230,282,0.9,4.4,8.3,30.4,74.4,999.0,0.00,0,0.0,0.0,0,0.0,32.7,0.0,12.2,3.505
2010/07/03,15:40:01,142,230,282,0.9,4.3,8.6,30.4,74.1,998.9,0.00,0,0.0,0.0,0,0.0,32.4,0.0,12.2,3.505
2010/07/03,15:50:01,155,228,288,0.9,4.1,7.6,30.3,74.8,998.9,0.00,0,0.0,0.0,0,0.0,32.5,0.0,12.2,3.506
2010/07/03,16:00:01,144,229,295,0.8,4.1,8.8,30.3,74.8,998.8,0.00,0,0.0,0.0,0,0.0,32.4,0.0,12.2,3.505
2010/07/03,16:10:01,181,231,278,0.7,4.7,9.1,30.3,74.6,998.6,0.00,0,0.0,0.0,0,0.0,31.9,0.0,12.2,3.505
2010/07/03,16:20:01,177,233,285,0.9,4.2,8.0,30.3,74.8,998.4,0.00,0,0.0,0.0,0,0.0,32.0,0.0,12.2,3.504
2010/07/03,16:30:01,175,235,297,0.7,4.2,8.5,30.2,75.1,998.5,0.00,0,0.0,0.0,0,0.0,32.2,0.0,12.2,3.505
2010/07/03,16:40:01,178,236,288,1.4,5.1,8.9,30.0,76.1,998.4,0.00,0,0.0,0.0,0,0.0,32.0,0.0,12.2,3.506
2010/07/03,16:50:01,180,233,275,1.3,4.2,8.6,30.0,76.7,998.5,0.00,0,0.0,0.0,0,0.0,31.7,0.0,12.2,3.505
2010/07/03,17:00:01,169,234,314,0.9,3.9,7.1,30.1,77.1,998.4,0.00,0,0.0,0.0,0,0.0,31.7,0.0,12.2,3.505
2010/07/03,17:10:01,182,237,305,0.8,3.7,6.8,30.1,77.7,998.5,0.00,0,0.0,0.0,0,0.0,31.7,0.0,12.2,3.505
2010/07/03,17:20:01,145,232,293,0.7,3.5,7.8,30.0,77.9,998.4,0.00,0,0.0,0.0,0,0.0,31.7,0.0,12.2,3.505
2010/07/03,17:30:01,176,229,281,0.9,3.4,7.1,29.9,77.3,998.5,0.00,0,0.0,0.0,0,0.0,31.3,0.0,12.2,3.505
2010/07/03,17:40:01,171,229,311,0.5,3.0,6.7,30.0,77.5,998.5,0.00,0,0.0,0.0,0,0.0,31.5,0.0,12.2,3.505
2010/07/03,17:50:01,162,229,295,0.8,3.2,7.1,29.8,79.1,998.6,0.00,0,0.0,0.0,0,0.0,31.0,0.0,12.2,3.505
2010/07/03,18:00:01,144,224,274,0.8,3.0,6.3,29.7,78.6,998.7,0.00,0,0.0,0.0,0,0.0,31.0,0.0,12.2,3.505
2010/07/03,18:10:01,134,220,290,0.4,2.8,6.7,29.7,78.1,998.7,0.00,0,0.0,0.0,0,0.0,30.5,0.0,12.2,3.504
2010/07/03,18:20:01,122,212,269,0.6,3.0,6.5,29.5,78.4,998.8,0.00,0,0.0,0.0,0,0.0,30.5,0.0,12.2,3.505
2010/07/03,18:30:01,128,219,276,0.4,3.3,7.3,29.2,79.2,998.9,0.00,0,0.0,0.0,0,0.0,30.1,0.0,12.2,3.506
2010/07/03,18:40:01,126,222,307,0.4,2.8,6.8,28.9,80.4,999.1,0.00,0,0.0,0.0,0,0.0,29.3,0.0,12.2,3.505
2010/07/03,18:50:01,149,212,270,0.3,3.0,6.9,28.8,81.1,999.2,0.00,0,0.0,0.0,0,0.0,28.8,0.0,12.2,3.506
2010/07/03,19:00:01,133,209,276,0.7,3.3,6.7,28.6,81.3,999.2,0.00,0,0.0,0.0,0,0.0,28.8,0.0,12.2,3.506
2010/07/03,19:10:01,143,209,281,0.5,3.3,6.9,28.5,81.9,999.2,0.00,0,0.0,0.0,0,0.0,28.1,0.0,12.2,3.505
2010/07/03,19:20:01,146,212,287,0.8,3.4,6.5,28.4,82.6,999.2,0.00,0,0.0,0.0,0,0.0,27.9,0.0,12.2,3.505
2010/07/03,19:30:01,89,215,294,0.2,3.1,7.0,28.4,82.9,999.3,0.00,0,0.0,0.0,0,0.0,27.6,0.0,12.2,3.506
2010/07/03,19:40:01,107,211,307,0.4,3.3,7.7,28.4,82.6,999.5,0.00,10,0.0,0.0,0,0.0,27.6,0.0,12.2,3.506
2010/07/03,19:50:01,144,213,276,0.4,3.1,8.0,28.3,83.5,999.6,0.03,150,0.2,0.0,0,0.0,27.6,0.0,12.1,3.506
2010/07/03,20:00:01,144,213,267,0.7,3.2,6.8,28.1,85.2,999.7,0.17,130,6.9,0.0,0,0.0,27.2,0.0,12.2,3.506
2010/07/03,20:10:01,118,216,277,0.3,3.0,6.3,27.9,86.5,999.7,0.01,90,0.0,0.0,0,0.0,27.1,0.0,12.3,3.506
2010/07/03,20:20:01,164,223,280,0.6,2.8,6.4,27.9,85.7,999.7,0.00,0,0.0,0.0,0,0.0,26.7,0.0,12.2,3.506
2010/07/03,20:30:01,157,222,311,0.3,2.9,5.9,28.0,85.6,999.8,0.00,0,0.0,0.0,0,0.0,27.2,0.0,12.2,3.506
2010/07/03,20:40:01,118,217,299,0.4,2.8,5.9,27.9,85.1,999.9,0.00,0,0.0,0.0,0,0.0,26.9,0.0,12.2,3.508
2010/07/03,20:50:01,100,209,272,0.3,3.1,6.6,28.0,85.3,1000.0,0.00,0,0.0,0.0,0,0.0,26.9,0.0,12.2,3.506
2010/07/03,21:00:01,148,214,281,0.4,3.1,7.2,28.0,84.8,1000.0,0.00,0,0.0,0.0,0,0.0,26.9,0.0,12.2,3.506
2010/07/03,21:10:01,154,222,272,0.6,3.0,6.1,28.1,84.4,1000.1,0.00,0,0.0,0.0,0,0.0,26.7,0.0,12.2,3.505
2010/07/03,21:20:01,169,225,272,0.9,3.2,6.9,28.1,84.2,1000.1,0.00,0,0.0,0.0,0,0.0,27.1,0.0,12.2,3.506
2010/07/03,21:30:01,167,225,285,0.6,3.4,7.1,28.1,83.9,1000.1,0.00,0,0.0,0.0,0,0.0,27.1,0.0,12.2,3.506
2010/07/03,21:40:01,144,223,280,0.5,3.5,7.8,28.2,84.0,1000.3,0.00,0,0.0,0.0,0,0.0,27.1,0.0,12.2,3.505
2010/07/03,21:50:01,173,233,320,1.3,4.0,7.5,28.3,84.2,1000.2,0.00,0,0.0,0.0,0,0.0,27.2,0.0,12.3,3.506
2010/07/03,22:00:01,184,233,289,1.0,4.1,7.4,28.2,85.0,1000.2,0.00,0,0.0,0.0,0,0.0,27.2,0.0,12.2,3.506
2010/07/03,22:10:01,173,228,280,0.6,3.7,7.3,28.1,85.5,1000.2,0.00,0,0.0,0.0,0,0.0,27.2,0.0,12.2,3.505
2010/07/03,22:20:01,147,228,305,1.2,3.9,7.4,28.1,85.5,1000.2,0.00,0,0.0,0.0,0,0.0,27.2,0.0,12.2,3.505
2010/07/03,22:30:01,171,228,283,0.7,4.2,7.5,28.2,85.4,1000.1,0.00,0,0.0,0.0,0,0.0,27.2,0.0,12.2,3.506
2010/07/03,22:40:01,164,227,289,0.9,4.0,7.9,28.2,85.0,1000.1,0.00,0,0.0,0.0,0,0.0,27.2,0.0,12.2,3.506
2010/07/03,22:50:01,167,228,275,0.9,4.3,8.5,28.2,84.5,1000.2,0.00,0,0.0,0.0,0,0.0,27.2,0.0,12.2,3.505
2010/07/03,23:00:01,155,231,286,0.8,4.1,8.5,28.2,84.3,1000.2,0.00,0,0.0,0.0,0,0.0,27.4,0.0,12.1,3.506
2010/07/03,23:10:01,135,228,294,0.6,4.1,8.2,28.2,84.5,1000.2,0.00,0,0.0,0.0,0,0.0,27.4,0.0,12.2,3.506
2010/07/03,23:20:01,174,230,279,1.3,4.3,8.6,28.3,84.4,1000.2,0.00,0,0.0,0.0,0,0.0,27.2,0.0,12.2,3.506
2010/07/03,23:30:01,162,228,272,0.6,3.9,8.7,28.2,85.1,1000.1,0.00,0,0.0,0.0,0,0.0,27.2,0.0,12.2,3.506
2010/07/03,23:40:01,158,228,276,1.5,4.2,8.3,28.2,85.3,1000.0,0.00,0,0.0,0.0,0,0.0,27.1,0.0,12.2,3.506
2010/07/03,23:50:01,165,229,333,0.9,4.1,7.5,28.2,84.9,1000.0,0.00,0,0.0,0.0,0,0.0,27.2,0.0,12.2,3.505
2010/07/04,00:00:01,153,226,295,0.7,3.7,7.7,28.2,83.5,1000.0,0.00,0,0.0,0.0,0,0.0,27.7,0.0,12.2,3.506
2010/07/04,00:10:01,167,226,298,0.6,3.5,8.0,28.3,83.6,999.9,0.00,0,0.0,0.0,0,0.0,27.2,0.0,12.2,3.506
2010/07/04,00:20:01,157,228,287,1.0,3.9,8.4,28.2,83.8,999.9,0.00,0,0.0,0.0,0,0.0,27.4,0.0,12.2,3.505
2010/07/04,00:30:01,172,226,294,0.8,3.8,8.5,28.3,82.6,1000.0,0.00,0,0.0,0.0,0,0.0,27.1,0.0,12.2,3.506
2010/07/04,00:40:01,155,222,282,0.6,3.3,6.8,28.3,82.4,1000.0,0.00,0,0.0,0.0,0,0.0,27.4,0.0,12.2,3.506
2010/07/04,00:50:01,164,226,283,1.0,3.7,7.1,28.2,83.5,1000.0,0.00,0,0.0,0.0,0,0.0,27.4,0.0,12.2,3.506
2010/07/04,01:00:01,153,228,291,0.6,3.5,7.4,28.2,83.9,1000.0,0.00,0,0.0,0.0,0,0.0,27.6,0.0,12.2,3.505
2010/07/04,01:10:01,161,227,277,0.7,4.0,7.9,28.2,83.8,999.9,0.00,0,0.0,0.0,0,0.0,27.4,0.0,12.2,3.505
2010/07/04,01:20:01,153,228,284,0.9,4.0,8.2,28.2,82.9,1000.1,0.00,0,0.0,0.0,0,0.0,27.4,0.0,12.2,3.505
2010/07/04,01:30:01,175,228,283,1.2,4.2,8.9,28.2,83.1,999.9,0.00,0,0.0,0.0,0,0.0,27.4,0.0,12.2,3.505
2010/07/04,01:40:01,87,228,292,0.7,4.0,8.3,28.1,84.1,999.8,0.00,0,0.0,0.0,0,0.0,27.4,0.0,12.2,3.506
2010/07/04,01:50:01,151,231,283,0.7,3.8,8.1,28.0,84.4,999.8,0.00,0,0.0,0.0,0,0.0,27.4,0.0,12.2,3.506
2010/07/04,02:00:01,156,227,294,0.8,3.8,7.5,28.0,84.7,999.7,0.00,0,0.0,0.0,0,0.0,27.1,0.0,12.2,3.505
2010/07/04,02:10:01,171,226,284,1.0,3.5,7.0,28.0,84.9,999.6,0.00,0,0.0,0.0,0,0.0,27.1,0.0,12.2,3.506
2010/07/04,02:20:01,149,226,340,0.4,3.5,6.8,28.0,85.3,999.3,0.00,0,0.0,0.0,0,0.0,27.2,0.0,12.2,3.505
2010/07/04,02:30:01,167,224,279,0.9,3.5,8.0,27.9,85.8,999.2,0.00,0,0.0,0.0,0,0.0,27.2,0.0,12.2,3.506
2010/07/04,02:40:01,142,223,342,0.9,3.6,8.5,27.9,86.6,999.2,0.00,0,0.0,0.0,0,0.0,27.1,0.0,12.2,3.505
2010/07/04,02:50:01,126,223,278,0.7,4.2,8.4,27.8,86.5,999.0,0.00,0,0.0,0.0,0,0.0,27.2,0.0,12.2,3.506
2010/07/04,03:00:01,130,225,288,0.5,4.1,9.4,27.8,86.3,999.0,0.00,0,0.0,0.0,0,0.0,27.1,0.0,12.2,3.505
2010/07/04,03:10:01,158,227,287,0.7,4.1,8.5,27.8,85.9,998.9,0.00,0,0.0,0.0,0,0.0,26.9,0.0,12.2,3.505
2010/07/04,03:20:01,136,227,279,0.9,4.0,8.5,27.9,85.3,998.9,0.00,0,0.0,0.0,0,0.0,26.9,0.0,12.2,3.506
2010/07/04,03:30:01,147,226,316,0.9,4.0,9.4,27.9,84.3,998.7,0.00,0,0.0,0.0,0,0.0,27.1,0.0,12.2,3.506
2010/07/04,03:40:01,158,223,277,0.6,3.6,7.5,27.9,83.9,998.7,0.00,0,0.0,0.0,0,0.0,27.1,0.0,12.2,3.505
2010/07/04,03:50:01,147,226,335,0.8,3.8,8.4,27.9,84.0,998.6,0.00,0,0.0,0.0,0,0.0,27.1,0.0,12.2,3.506
2010/07/04,04:00:01,142,223,278,0.8,3.4,7.7,27.9,83.6,998.6,0.00,0,0.0,0.0,0,0.0,27.1,0.0,12.2,3.505
2010/07/04,04:10:01,139,223,294,0.5,3.4,7.9,27.9,82.5,998.7,0.00,0,0.0,0.0,0,0.0,27.1,0.0,12.2,3.506
2010/07/04,04:20:01,157,215,286,0.5,2.9,5.9,27.8,82.0,998.8,0.00,0,0.0,0.0,0,0.0,27.1,0.0,12.2,3.506
2010/07/04,04:30:01,149,217,288,0.6,3.2,6.8,27.8,82.0,998.9,0.00,0,0.0,0.0,0,0.0,27.1,0.0,12.2,3.506
2010/07/04,04:40:01,118,217,272,0.3,2.8,6.2,27.8,81.8,998.8,0.00,0,0.0,0.0,0,0.0,26.9,0.0,12.2,3.505
2010/07/04,04:50:01,166,218,295,0.6,3.1,6.3,27.8,81.5,998.8,0.00,0,0.0,0.0,0,0.0,26.9,0.0,12.2,3.505
2010/07/04,05:00:01,151,224,279,0.8,3.2,7.3,27.9,80.9,998.9,0.00,0,0.0,0.0,0,0.0,26.9,0.0,12.2,3.506
2010/07/04,05:10:01,154,227,287,0.6,3.0,6.9,27.8,82.0,999.0,0.00,0,0.0,0.0,0,0.0,26.9,0.0,12.2,3.506
2010/07/04,05:20:01,153,226,299,0.5,2.5,6.0,27.7,81.2,998.9,0.00,0,0.0,0.0,0,0.0,26.9,0.0,12.2,3.506
2010/07/04,05:30:01,157,215,276,0.5,2.8,6.1,27.6,81.4,999.0,0.00,0,0.0,0.0,0,0.0,26.9,0.0,12.2,3.506
2010/07/04,05:40:01,95,215,292,0.7,3.1,6.6,27.6,81.5,999.1,0.00,0,0.0,0.0,0,0.0,26.9,0.0,12.2,3.506
2010/07/04,05:50:01,140,220,265,0.3,3.2,7.3,27.6,81.6,999.0,0.00,0,0.0,0.0,0,0.0,26.7,0.0,12.2,3.505
2010/07/04,06:00:01,160,218,270,0.8,3.1,7.0,27.7,82.0,999.0,0.00,0,0.0,0.0,0,0.0,26.7,0.0,12.2,3.505
2010/07/04,06:10:01,165,222,278,0.8,3.1,6.3,27.7,82.0,999.1,0.00,0,0.0,0.0,0,0.0,26.9,0.0,12.2,3.506
2010/07/04,06:20:01,151,222,282,0.5,3.2,7.5,27.7,82.5,999.0,0.00,0,0.0,0.0,0,0.0,26.9,0.0,12.2,3.506
2010/07/04,06:30:01,158,222,291,0.6,3.2,8.1,27.8,83.0,998.9,0.00,0,0.0,0.0,0,0.0,26.9,0.0,12.2,3.506
2010/07/04,06:40:01,165,223,276,0.4,3.7,7.6,27.9,82.3,999.0,0.00,0,0.0,0.0,0,0.0,27.1,0.0,12.2,3.506
2010/07/04,06:50:01,143,227,294,0.5,4.0,8.0,28.0,81.8,999.2,0.00,0,0.0,0.0,0,0.0,27.4,0.0,12.2,3.506
2010/07/04,07:00:01,124,226,318,0.7,3.8,7.9,27.9,82.1,999.3,0.00,0,0.0,0.0,0,0.0,27.6,0.0,12.2,3.506
2010/07/04,07:10:01,153,225,280,0.5,3.6,6.7,28.0,81.8,999.3,0.00,0,0.0,0.0,0,0.0,27.4,0.0,12.2,3.506
2010/07/04,07:20:01,164,227,272,0.6,3.8,7.0,28.1,81.6,999.4,0.00,0,0.0,0.0,0,0.0,27.4,0.0,12.2,3.506
2010/07/04,07:30:01,174,227,262,0.9,4.2,8.4,28.1,80.6,999.6,0.00,0,0.0,0.0,0,0.0,27.9,0.0,12.2,3.505
2010/07/04,07:40:01,165,231,286,1.2,4.5,8.8,28.1,81.0,999.7,0.00,0,0.0,0.0,0,0.0,27.7,0.0,12.2,3.505
2010/07/04,07:50:01,141,229,285,0.6,4.3,8.4,28.2,81.2,999.8,0.00,0,0.0,0.0,0,0.0,27.9,0.0,12.2,3.506
2010/07/04,08:00:01,145,226,305,0.5,4.1,7.4,28.2,81.6,999.8,0.00,0,0.0,0.0,0,0.0,27.9,0.0,12.2,3.506
2010/07/04,08:10:01,159,227,308,1.2,4.2,8.0,28.2,81.3,999.8,0.00,0,0.0,0.0,0,0.0,28.1,0.0,12.2,3.506
2010/07/04,08:20:01,179,228,330,1.0,4.2,9.5,28.4,80.5,999.8,0.00,0,0.0,0.0,0,0.0,28.3,0.0,12.2,3.505
2010/07/04,08:30:01,174,229,290,1.1,4.4,8.1,28.4,79.4,999.8,0.00,0,0.0,0.0,0,0.0,28.6,0.0,12.2,3.506